User: anonymous   Login
Location: Unspecified
(0.0000°N, 0.0000°E)
Time: 20:04:46
(UTC+00:00)
Language:

USA 247 - Orbit

View from above orbital plane
View from above orbital plane
View from above satellite
View from above satellite

Ground track
Ground track

The orbit data is extracted from the following two-line orbital elements,

1 39462U 13072A   14320.17484219 0.00000000  00000-0  00000-0 0    06
2 39462 123.0062 215.7742 0006999 135.1243 224.8757 13.41439291    02
Epoch (UTC): 16 November 2014 04:11:46
Eccentricity: 0.0006999
inclination: 123.0062°
perigee height: 1098 km
apogee height: 1109 km
right ascension of ascending node: 215.7742°
argument of perigee: 135.1243°
revolutions per day: 13.41439291
mean anomaly at epoch: 224.8757°
orbit number at epoch: 0

The dashed part of the orbit path shows where the satellite is in the earth's shadow,  

DLR